Location: Chino
(34.0122°N, 117.6889°W)
Time: 13:57:40
(UTC+00:00)

Cosmos 1908 Rocket - Pass Details

Date: 13 February 2026
Orbit: 600 x 624 km, 82.5° (Epoch: 12 March)

Event Time Altitude Azimuth Distance (km) Brightness Sun altitude
Rises 13:27:47 0° 200° (SSW) 2,844 6.8 -15.0°
Reaches altitude 10° 13:30:04 10° 207° (SSW) 1,949 5.9 -14.5°
Maximum altitude 13:34:10 43° 280° (W) 862 3.8 -13.7°
Drops below altitude 10° 13:38:20 10° 352° (N) 1,975 6.0 -12.8°
Sets 13:40:40 0° 359° (N) 2,889 6.9 -12.3°
